Find Starlink 4023

NORAD ID: 53135 Int'l Des: 2022-083 Owner: SPXS Country: US Constellation: starlink operational
LEOCIRCULAR

Live Position

Loading 3D Globe...

About Starlink 4023

Description loading...

Upcoming Passes

Passes for default location (London). Set your location on the main map for personalized predictions.

Altitude History

Loading altitude history...

Two-Line Element Set

1 53135U 22083D 26122.46896580 -.00000128 00000-0 10048-4 0 9990
2 53135 53.2183 292.6970 0001453 84.6931 275.4227 15.08839779210324
Epoch: May 2, 2026 • Age: 6 hours

Current Status

Altitude 557.1 km
Velocity 7.58 km/s
Sub-Earth Point -48.06°S, 115.37°E
Launch Date Jul 17, 2022
Age 3.7 years
Type internet

Technical Details

Classification Payload
Mass 297.00 kg
Dry Mass 275.00 kg
Total Mass 297.00 kg
Length 0.20 m
Diameter 2.80 m
Span 9.00 m
Shape Box + pan
Manufacturer SPXS
Bus Type Starlink
Phase Status In Orbit
Owner/State SPXS/US

Most Searched